Location: Bergen
(60.3910°N, 5.3250°E)
Time: 09:17:59
(UTC+02:00)

ISS - Visible Passes

Search period start: 29 March 2017 00:00
Search period end: 08 April 2017 00:00
Orbit: 399 x 409 km, 51.6° (Epoch: 29 March)

Date Brightness Start Highest point End Pass type
(mag) Time Alt. Az. Time Alt. Az. Time Alt. Az.
30 Mar -1.5 22:27:23 10° SSW 22:28:00 12° SSW 22:28:00 12° SSW visible
31 Mar -1.8 21:35:41 10° S 21:37:17 13° SSE 21:38:03 12° SE visible
31 Mar -1.1 23:10:34 10° SW 23:10:43 11° SW 23:10:43 11° SW visible
01 Apr -2.0 22:18:28 10° SW 22:20:37 18° S 22:20:37 18° S visible
02 Apr -1.9 21:26:27 10° SSW 21:28:33 16° SSE 21:30:24 11° SE visible
02 Apr -1.6 23:01:58 10° SW 23:03:03 15° SSW 23:03:03 15° SSW visible
03 Apr -2.1 22:09:42 10° SW 22:12:02 18° S 22:12:46 17° SSE visible
04 Apr -1.9 21:17:31 10° SW 21:19:49 18° S 21:22:07 10° SE visible
04 Apr -1.7 22:53:30 10° SW 22:55:04 15° SSW 22:55:04 15° SSW visible
05 Apr -1.8 22:01:03 10° SW 22:03:15 17° S 22:04:40 13° SSE visible
06 Apr -1.4 22:45:23 10° SW 22:46:37 12° SSW 22:46:54 12° SSW visible
07 Apr -1.5 21:52:35 10° SW 21:54:25 14° SSW 21:56:15 10° SSE visible
